SCP
-0 0 0 0 0 0 0 -0 0 -0 -0 0 -0 -0 -0 -0 0 0 0 0 0 0 0 0 0 0 0 0 0 0 0 0 0 0 0 0 0 0 0 0 0 0 0 0 0 0 0 0 0 0 0 0 0 0
-0 0 -0 0 0 0 -0 -0 -0 0 -0 0 0 -0 -0 -0 -0 0 0 0 0 0 0 0 0 0 0 0 0 0 0 0 0 0 0 0 0 0 0 0 0 0 0 0 0 0 0 0 0 0 0 0 0 0
-0 0 0 0 0 0 0 -0 -0 0 0 -0 0 0 -0 -0 -0 -0 0 0 0 0 0 0 0 0 0 0 0 0 0 0 0 0 0 0 0 0 0 0 0 0 0 0 0 0 0 0 0 0 0 0 0 0
-0 -0 0 0 0 0 0 -0 -0 -0 0 0 0 0 0 0 -0 -0 0 0 0 0 0 0 0 0 0 0 0 0 0 0 0 0 0 0 0 0 0 0 0 0 0 0 0 0 0 0 0 0 0 0 0 0
-0 -0 0 0 0 0 0 0 0 -0 -0 0 0 0 0 0 -0 0 0 0 0 0 0 0 0 0 0 0 0 0 0 0 0 0 0 0 0 0 0 0 0 0 0 0 0 0 0 0 0 0 0 0 0 0
-0 -0 -0 0 0 0 0 0 0 0 0 0 -0 0 -0 0 0 0 0 0 0 0 0 0 0 0 0 0 0 0 0 0 0 0 0 0 0 0 0 0 0 0 0 0 0 0 0 0 0 0 0 0 0 0
-0 -0 0 0 0 0 0 0 0 0 0 -0 -0 0 0 -0 0 0 0 0 -0 -0 -0 0 0 0 0 0 0 0 0 0 0 0 0 0 0 0 0 0 0 0 0 0 0 0 0 0 0 0 0 0 0 0
0 -0 0 0 0 0 0 0 0 0 0 -0 -0 -0 -0 -0 -0 0 0 0 0 0 0 -0 0 0 0 0 0 0 0 0 0 0 0 0 0 0 0 0 0 0 0 0 0 0 0 0 0 0 0 0 0 0
-0 -0 -0 -0 0 0 0 0 0 -0 -0 -0 -0 -0 -0 -0 -0 0 0 0 0 -0 0 0 0 -0 0 0 0 0 0 0 0 0 0 0 0 0 0 0 0 0 0 0 0 0 0 0 0 -0 0 0 0 0
-0 -0 -0 -0 -0 -0 0 0 0 -0 -0 -0 0 0 -0 0 0 0 0 -0 -0 -0 0 -0 -0 -0 0 0 0 0 0 0 0 0 0 0 -0 -0 0 0 0 0 0 0 0 0 0 0 0 0 0 0 0 0
0 -0 -0 -0 -0 -0 -0 -0 -0 -0 -0 -0 -0 -0 -0 0 -0 -0 -0 0 -0 -0 -0 -0 0 0 0 0 0 0 0 0 0 0 0 0 -0 0 0 0 0 0 0 0 0 0 0 0 0 0 0 0 0 0
-0 0 -0 -0 -0 -0 -0 -0 -0 -0 0 0 0 0 -0 -0 0 -0 -0 -0 -0 -0 -0 -0 0 0 0 0 0 0 0 -0 -0 0 0 0 0 0 0 -0 0 0 0 0 0 0 -0 -0 0 0 0 0 0 0
0 0 0 -0 -0 -0 -0 -0 -0 -0 -0 0 0 0 -0 -0 -0 0 -0 -0 -0 -0 0 0 0 0 0 0 0 0 0 -0 0 0 0 0 0 0 0 -0 -0 0 0 0 0 0 0 -0 0 0 0 0 0 0
0 0 0 0 0 -0 -0 -0 -0 0 0 0 0 -0 -0 0 0 0 0 0 0 0 0 0 -0 -0 0 -0 0 0 0 0 0 0 -0 0 0 0 -0 0 -0 -0 -0 -0 -0 -0 -0 -0 -0 -0 -0 0 0 0
0 0 0 0 0 0 -0 -0 0 0 0 0 0 -0 -0 0 0 0 0 0 0 0 0 0 0 0 0 0 0 0 0 -0 0 0 0 -0 -0 -0 -0 -0 -0 -0 -0 -0 -0 -0 -0 -0 -0 -0 0 0 0 0
0 0 0 0 0 0 -0 0 0 0 0 0 0 0 0 0 0 0 0 0 0 0 0 0 0 0 0 0 0 0 0 0 0 0 -0 -0 -0 -0 -0 -0 -0 -0 -0 0 0 0 0 0 0 0 0 0 0 0
0 0 0 0 0 0 0 0 0 0 0 0 0 0 0 0 0 0 0 0 0 0 0 0 0 0 0 0 0 0 0 0 0 0 0 0 -0 -0 -0 -0 0 0 0 0 0 0 0 0 0 0 0 0 0 0
0 0 0 0 0 0 0 0 0 0 0 0 0 0 0 0 0 0 0 0 0 0 0 0 0 0 -0 0 0 0 0 0 0 0 0 0 0 0 0 0 0 0 0 0 0 0 0 0 0 0 0 0 0 0
0 0 0 0 0 0 0 0 0 0 0 0 0 0 0 0 0 0 0 0 0 0 0 0 0 0 0 0 0 0 0 0 0 0 0 0 0 0 0 0 0 0 0 0 0 0 0 0 0 0 0 0 0 0
0 0 0 0 0 0 0 0 0 0 0 0 0 0 0 0 0 0 0 0 0 0 0 0 0 0 0 0 0 0 0 0 0 0 -0 -0 0 0 0 0 0 0 0 0 0 0 0 0 0 0 0 0 0 0
0 0 0 0 0 0 0 0 0 0 0 0 0 0 0 0 0 0 0 0 0 0 0 0 0 0 0 0 0 0 0 0 0 0 -0 -0 0 0 0 0 0 0 0 0 0 0 0 0 0 0 0 0 0 0
0 0 0 0 0 0 0 0 0 0 0 0 0 0 0 0 0 0 0 0 0 0 0 0 0 0 0 0 0 0 0 0 -0 -0 0 0 0 0 0 0 0 0 0 0 0 0 0 0 0 0 0 0 0 0
0 0 0 0 0 0 0 0 0 0 0 0 0 0 0 0 0 0 0 0 0 0 0 0 0 0 0 0 0 0 0 0 0 0 0 0 0 0 0 0 0 0 0 0 0 0 0 0 0 0 0 0 0 0
0 0 0 0 0 0 0 0 0 0 0 0 0 0 0 0 0 0 0 0 0 0 0 0 0 0 0 0 0 0 0 0 0 0 0 0 0 0 0 0 0 0 0 0 0 0 0 0 0 0 0 0 0 0
0 0 0 0 0 0 0 0 0 0 0 0 0 0 0 0 0 0 0 0 0 0 0 0 0 0 0 0 0 0 0 0 0 0 0 0 0 0 0 0 0 0 0 0 0 0 0 0 0 0 0 0 0 0
0 0 0 0 0 0 0 0 0 0 0 0 0 0 0 0 0 0 0 0 0 0 0 0 0 0 0 0 0 0 0 0 0 0 0 0 0 0 0 0 0 0 0 0 0 0 0 0 0 0 0 0 0 0
0 0 0 0 0 0 0 0 0 0 0 0 0 0 0 0 0 0 0 0 0 0 0 -0 -0 -0 -0 -0 -0 -0 0 0 0 0 0 0 0 0 0 0 0 0 0 0 0 0 0 0 0 0 0 0 0 0
0 0 0 0 0 0 0 0 0 0 0 0 0 0 0 0 0 0 0 0 0 -0 -0 -0 -0 -0 -0 -0 -0 -0 0 0 0 0 0 0 0 0 0 0 0 0 0 0 0 0 0 0 0 0 0 0 0 0
0 0 0 0 0 0 0 0 0 0 0 0 0 0 0 0 0 0 0 0 -0 -0 -0 -0 -0 -0 -0 -0 -0 0 0 0 0 0 0 0 0 0 0 0 0 0 0 0 0 0 0 0 0 0 0 0 0 0
0 0 0 0 0 0 0 0 0 0 0 0 0 0 0 0 0 0 0 -0 -0 -0 -0 -0 -0 -0 -0 -0 -0 -0 0 0 -0 0 0 0 0 0 0 0 0 0 0 0 0 0 0 0 0 0 0 0 0 0
0 0 0 0 0 0 0 0 0 0 0 0 0 0 0 0 0 0 0 0 0 0 0 0 0 0 0 0 0 0 0 0 0 0 0 0 0 0 0 0 0 0 0 0 0 0 0 0 0 0 0 0 0 0
0 0 0 0 0 0 0 0 0 0 0 0 0 0 0 0 0 0 0 0 0 0 0 0 0 0 0 0 0 0 0 0 0 0 0 0 0 0 0 0 0 0 0 0 0 0 0 0 0 0 0 0 0 0
0 0 0 0 0 0 0 0 0 0 0 0 0 0 0 0 0 0 0 0 0 0 0 0 0 0 0 0 0 0 0 0 0 0 0 0 0 0 0 0 0 0 0 0 0 0 0 0 0 0 0 0 0 0
Wind_Speed_500mb
33 42 49 47 18 11 17 23 29 32 33 36 36 39 33 29 29 27 39 50 64 38 25 27 26 24 27 16 13 26 14 5 6 6 7 7 6 11 7 7 13 16 13 8 6 4 26 27 5 23 35 10 18 25
28 39 48 48 25 17 16 20 25 32 29 31 35 39 33 28 29 36 44 44 43 31 29 42 40 29 28 18 44 13 6 12 15 7 3 6 3 2 9 7 3 6 14 12 20 16 9 36 47 62 57 48 46 44
22 31 41 41 27 23 13 17 22 26 26 26 31 31 38 44 39 30 42 40 43 44 31 24 34 32 29 37 41 16 11 12 14 10 12 4 6 7 7 8 5 8 8 6 8 15 26 26 58 52 48 56 60 65
14 20 30 34 23 14 16 19 19 22 17 21 25 27 30 35 40 34 41 34 30 18 9 9 19 25 25 25 20 19 24 28 32 26 10 5 5 10 6 4 8 11 22 13 10 24 7 35 53 62 59 61 69 70
12 8 17 23 22 18 18 23 23 15 17 19 20 24 22 28 28 28 37 42 31 10 11 9 16 15 13 18 19 24 29 33 25 8 5 4 6 7 2 3 7 24 17 17 17 28 16 44 70 71 65 65 65 66
10 2 5 14 17 19 24 25 22 22 18 22 22 23 21 16 17 15 11 22 27 23 11 6 6 10 6 8 12 18 18 13 7 7 5 5 4 5 6 7 28 47 54 70 44 74 72 82 87 84 81 89 85 82
18 12 12 11 17 20 23 25 25 23 23 20 19 20 19 16 13 18 11 8 15 14 8 7 5 9 8 9 7 6 8 6 5 4 4 5 7 14 4 10 47 76 68 65 74 81 71 95 70 85 62 54 53 57
23 20 30 23 21 24 23 19 20 20 18 18 17 16 16 16 13 20 18 9 9 9 11 6 4 7 5 7 6 6 6 2 1 4 3 6 3 6 9 46 80 83 89 64 82 81 88 99 87 88 88 81 76 76
26 33 41 37 29 26 25 21 18 15 13 12 9 9 10 7 10 10 8 6 7 11 7 4 7 6 9 6 7 6 2 1 5 4 6 9 6 14 25 46 60 87 64 85 95 83 87 92 98 100 100 91 81 78
7 42 51 45 37 31 26 22 18 10 6 8 9 9 10 8 6 5 3 6 8 7 4 1 9 3 13 12 7 9 7 5 4 8 11 7 18 74 58 72 84 87 77 78 77 74 77 79 88 90 93 88 84 78
16 40 49 46 40 34 28 24 21 16 11 3 5 5 2 4 4 4 5 4 2 4 5 7 11 8 17 6 5 17 5 3 2 8 6 6 9 16 51 73 72 81 84 83 80 85 80 74 69 68 67 67 69 66
19 30 37 39 37 34 32 27 22 16 5 3 3 2 3 2 3 6 3 3 4 8 10 8 8 8 12 11 5 7 6 3 9 2 2 8 13 27 32 33 34 42 46 46 48 53 57 58 58 53 46 44 43 43
28 33 36 34 34 34 34 29 23 12 8 4 1 1 2 3 3 9 8 7 3 15 19 15 5 11 8 9 3 4 4 8 4 1 8 13 24 41 37 28 29 29 28 29 33 37 40 42 46 44 41 38 34 33
35 38 39 44 42 38 35 35 29 21 6 5 3 6 7 8 9 9 8 7 7 10 33 22 12 8 8 5 4 6 5 4 2 5 15 7 34 31 19 19 27 30 33 34 30 32 28 22 21 22 23 28 29 34
45 43 41 41 45 42 42 40 35 32 15 8 9 9 13 8 8 5 9 8 9 30 30 12 9 4 1 4 5 7 5 9 12 11 8 24 13 20 22 29 32 34 34 34 25 19 19 22 21 22 28 30 31 35
37 43 53 49 53 48 50 51 47 47 14 15 15 3 7 2 6 13 20 15 23 38 15 7 6 6 8 6 5 14 12 15 10 8 34 25 19 23 27 26 23 25 26 27 30 24 23 25 25 27 29 30 33 37
29 34 42 57 51 47 68 69 52 20 16 13 10 31 20 10 9 11 21 21 41 37 6 6 8 21 3 4 7 11 13 10 14 25 32 35 41 36 32 30 24 25 24 22 22 23 25 28 31 32 32 32 37 41
35 30 37 47 45 39 57 57 16 14 13 15 9 15 23 25 14 14 22 28 41 25 23 12 10 9 12 14 10 9 38 62 64 66 66 60 57 55 51 40 27 23 22 23 25 26 31 32 33 32 30 33 41 47
27 28 38 42 55 38 18 17 16 10 19 9 15 17 15 15 25 24 21 34 40 23 10 10 5 9 10 12 20 49 61 77 80 82 77 69 63 54 50 46 38 31 24 27 32 33 32 33 30 30 34 42 46 48
28 22 34 37 45 26 12 10 13 10 10 13 15 13 11 9 12 18 24 33 39 11 5 7 12 34 37 75 67 76 73 67 58 56 67 78 73 61 54 51 45 33 30 34 39 42 44 45 44 41 43 46 50 54
45 36 31 42 43 21 12 13 13 8 8 10 10 12 7 6 9 12 16 30 19 15 10 51 79 102 90 89 85 85 83 81 81 80 76 80 83 78 66 54 52 47 43 41 46 50 54 57 48 46 50 53 51 51
46 61 47 48 17 17 12 20 8 12 9 6 12 11 6 4 9 10 20 23 21 30 41 61 84 86 86 91 90 85 82 73 72 74 75 79 86 89 86 75 69 68 61 59 59 60 59 57 52 52 54 54 51 52
55 60 24 24 14 21 7 17 13 12 5 8 9 5 4 6 9 15 11 20 25 34 45 62 76 79 83 84 84 83 78 76 78 79 78 78 78 79 80 84 85 85 85 82 73 71 68 61 57 57 58 57 57 59
58 36 23 31 18 11 14 8 12 11 8 6 7 7 6 7 13 4 8 13 18 25 29 33 34 42 39 36 40 40 37 37 47 49 45 51 64 69 67 74 80 85 83 80 74 72 69 64 61 63 64 64 63 65
21 20 19 10 12 12 7 6 6 6 7 8 9 6 6 12 5 7 8 7 9 22 40 39 40 41 44 54 56 52 44 45 53 60 52 45 47 50 54 57 63 67 68 76 83 77 73 66 61 64 69 71 70 70
14 22 27 16 7 12 14 14 16 15 8 9 6 9 9 5 3 12 6 2 10 30 41 46 53 58 57 54 62 63 59 53 50 57 65 54 47 45 52 56 59 61 50 57 71 75 75 71 66 64 70 71 70 69
15 10 12 19 20 20 8 7 11 6 12 13 11 11 8 9 12 7 7 17 35 38 43 45 44 45 55 62 59 58 58 56 55 59 60 59 58 55 55 59 64 59 45 43 47 58 66 70 68 66 66 68 68 68
11 30 18 29 12 16 11 8 11 17 10 17 21 12 18 14 2 7 15 36 42 49 53 55 56 58 60 61 62 64 64 60 59 58 58 51 34 31 30 37 43 47 50 42 38 38 43 49 56 59 59 60 58 59
9 31 31 9 7 8 10 12 13 17 27 31 9 8 7 10 23 31 40 39 40 44 50 58 58 58 57 56 55 53 50 51 55 57 57 58 49 27 25 28 31 33 33 33 31 33 33 36 41 47 50 51 51 51
5 33 11 8 13 12 8 15 14 30 22 24 17 14 14 22 38 51 55 54 50 51 51 53 57 61 64 67 68 61 45 40 32 30 45 49 48 46 39 29 27 28 26 24 26 31 35 37 38 40 40 42 44 47
13 7 9 6 6 5 17 26 27 21 16 10 10 10 13 17 15 37 58 65 56 55 59 61 58 57 61 62 61 60 60 41 47 50 49 53 50 42 39 35 31 24 25 22 23 28 33 37 39 41 41 40 39 38
10 8 3 7 5 12 17 7 10 9 8 8 7 9 11 10 8 11 46 61 58 68 65 60 62 65 64 56 40 45 55 59 56 50 45 43 40 38 37 33 34 37 30 28 20 19 26 32 34 35 34 32 32 30
7 10 11 9 7 4 6 11 7 7 8 7 8 8 9 10 10 22 24 54 62 65 66 57 49 55 56 54 55 55 52 49 45 41 37 34 32 32 31 28 28 28 28 30 24 19 17 21 25 28 29 28 26 24
Wind_Direction_500mb
8 8 7 10 11 114 93 81 89 85 71 66 75 82 95 89 86 120 88 95 111 106 83 99 99 110 117 126 138 157 100 37 54 99 135 202 128 210 114 175 177 162 150 179 116 112 262 190 144 178 224 118 199 227
8 15 11 21 52 104 106 92 93 100 88 76 72 82 88 75 95 103 93 112 111 93 101 97 98 99 110 115 128 134 100 141 150 114 134 106 79 75 149 204 206 206 183 179 184 209 217 187 209 216 234 257 264 268
10 22 18 32 63 79 94 100 109 104 97 85 81 89 83 81 79 100 94 99 107 100 82 96 86 104 116 136 137 118 163 142 158 131 145 149 168 131 166 241 107 259 154 192 91 243 221 211 215 228 235 244 248 252
8 23 26 33 44 62 111 123 120 100 99 93 88 91 86 81 74 82 88 86 104 99 95 57 101 99 106 129 150 171 176 162 152 153 124 148 197 193 202 181 177 194 151 182 254 271 195 232 229 238 239 245 261 274
347 28 39 39 36 65 117 147 139 91 115 103 95 97 96 70 69 69 79 67 62 74 121 98 92 69 102 124 115 136 159 158 151 125 85 199 142 132 52 66 251 187 194 189 220 224 206 254 263 265 261 265 270 271
322 273 82 65 64 66 87 101 119 118 113 113 105 101 102 86 70 72 78 58 62 64 98 76 67 51 153 132 130 141 149 145 136 131 163 191 209 186 147 208 253 236 232 233 236 251 258 263 269 270 270 271 274 277
298 243 195 137 109 106 101 108 115 119 116 107 97 94 92 84 72 56 77 29 59 49 83 92 47 27 85 119 107 112 139 113 94 114 222 174 197 183 132 225 254 252 250 248 249 253 259 261 259 269 270 275 272 270
270 236 194 176 147 137 134 126 127 124 113 106 96 79 70 62 58 49 48 74 106 57 66 92 20 29 100 81 67 53 36 75 212 277 218 200 208 198 245 237 247 257 260 262 260 255 257 268 268 267 272 270 264 265
265 210 188 179 166 156 147 139 127 121 109 112 95 69 43 38 41 33 57 108 112 65 83 81 128 228 148 91 95 108 147 295 271 254 228 162 217 224 231 243 247 250 245 252 265 267 263 259 261 264 265 262 262 264
153 168 177 177 172 169 163 160 166 161 117 61 25 21 33 28 5 16 22 37 35 30 92 152 127 123 165 161 147 135 192 222 212 243 159 219 248 248 252 256 261 264 262 262 250 254 252 251 254 256 256 261 263 262
132 165 174 177 178 177 176 175 179 178 149 125 348 56 340 297 15 39 54 58 108 7 195 171 185 141 191 143 168 203 186 211 217 259 158 255 271 250 255 251 260 259 256 258 258 261 257 259 262 264 265 263 261 258
160 169 185 185 187 187 186 186 192 195 102 112 62 349 98 137 113 92 239 350 209 221 169 165 168 160 167 184 192 184 187 125 248 133 95 262 249 252 256 262 264 263 264 262 258 255 254 254 256 257 258 258 255 250
194 192 192 200 201 199 200 198 196 189 159 94 280 150 182 203 22 177 215 278 278 172 174 164 152 162 154 184 155 103 137 225 133 113 233 237 278 289 301 296 290 282 282 279 277 276 269 261 256 252 250 251 247 239
198 204 208 201 199 205 204 201 198 182 171 223 161 231 205 211 232 194 185 190 161 172 160 149 130 164 157 139 152 125 244 76 254 249 236 251 261 301 311 317 312 310 302 295 289 283 276 256 247 246 248 244 237 227
210 208 212 209 205 206 206 206 201 193 190 217 185 231 217 230 243 220 201 152 141 152 147 121 89 150 143 156 163 104 31 252 219 235 234 249 284 303 314 312 313 313 309 304 296 272 241 224 218 228 235 228 212 206
214 213 214 213 210 208 209 209 201 204 206 203 213 224 203 88 258 211 208 194 173 162 144 114 105 70 244 165 131 214 154 223 240 216 247 277 295 300 304 305 308 315 313 305 293 272 240 238 233 231 229 226 216 208
222 212 212 217 214 206 202 199 202 204 213 200 239 221 206 243 226 197 201 190 178 162 169 139 178 218 101 148 235 192 214 226 228 258 286 284 292 291 290 296 306 316 315 309 296 274 256 245 244 241 233 225 214 207
224 210 204 208 202 205 203 203 212 215 218 200 193 218 218 228 227 212 200 182 172 191 159 202 154 194 203 191 239 237 242 261 266 273 282 291 293 286 280 279 282 293 300 311 298 273 256 251 252 250 233 219 213 209
220 213 208 203 194 192 185 198 207 211 218 201 223 231 227 241 237 235 220 199 194 187 182 170 215 207 228 221 241 253 257 264 272 279 288 296 297 292 280 269 269 283 299 307 297 283 268 256 253 243 231 223 218 213
205 203 200 192 184 184 196 213 197 231 206 198 209 202 211 221 231 225 214 199 194 192 196 213 224 236 232 249 254 261 267 272 276 282 284 287 294 295 288 272 264 267 276 284 283 279 264 252 242 231 228 223 220 218
192 182 187 184 180 183 187 195 196 207 192 185 195 188 220 245 224 201 193 187 185 220 230 228 242 251 254 258 263 267 272 275 274 275 276 282 286 285 284 283 261 259 263 269 274 274 267 260 252 242 235 231 226 224
187 184 180 183 186 194 218 202 184 172 173 159 166 190 190 191 198 194 177 193 229 234 231 252 258 264 271 277 284 288 290 290 286 284 282 277 273 272 271 271 268 266 267 273 274 273 274 267 255 245 239 238 233 232
193 180 165 158 181 196 203 184 174 187 172 173 159 187 200 176 183 170 242 229 249 262 270 271 278 282 283 287 287 288 291 291 288 286 285 280 277 274 272 268 267 266 268 270 271 269 270 268 255 245 240 237 235 233
187 175 180 177 175 162 169 150 160 140 128 175 180 207 175 153 166 199 258 264 279 346 6 353 337 326 326 324 327 339 337 322 316 307 303 293 285 283 278 271 266 265 265 267 265 265 265 264 257 244 239 237 235 235
157 184 175 151 158 122 134 128 149 178 209 164 179 191 171 159 194 230 230 257 343 357 356 0 1 359 346 349 352 349 345 328 319 312 315 312 299 294 289 285 278 270 261 257 257 257 259 259 255 243 237 237 237 237
191 187 174 164 149 169 173 155 190 183 157 154 183 120 154 163 193 245 212 347 3 352 355 355 347 342 343 339 332 330 330 327 317 307 311 309 302 295 297 295 291 283 277 267 258 253 251 252 251 246 239 237 238 239
179 158 156 160 151 140 114 98 141 143 173 175 162 161 166 188 235 247 150 359 350 346 344 343 339 335 329 329 326 322 318 314 307 304 303 302 299 295 291 290 291 296 293 278 268 255 251 250 249 247 243 242 242 243
140 162 156 172 155 166 136 167 166 186 174 147 139 175 176 199 275 52 6 347 342 343 345 344 337 328 325 325 325 324 322 318 313 309 307 308 318 316 306 299 292 281 282 278 265 259 255 251 247 248 248 249 251 250
148 152 125 122 131 159 194 182 198 197 158 168 153 157 161 86 60 40 20 6 357 347 340 337 337 333 328 323 321 319 319 317 313 311 310 310 319 316 319 317 304 297 277 270 259 247 252 253 250 248 249 251 253 254
130 159 99 136 149 183 194 190 151 157 156 155 145 121 111 115 64 44 29 16 8 5 357 349 343 341 338 332 327 325 331 329 316 318 321 313 314 318 304 313 326 314 288 260 254 252 250 250 251 247 245 243 242 243
121 115 90 87 97 86 131 132 137 143 142 142 145 113 120 138 92 35 18 10 8 12 6 1 358 2 355 348 342 337 335 335 325 317 308 302 299 303 306 296 293 314 316 277 243 241 244 248 249 252 252 251 251 250
30 41 107 110 105 117 121 114 104 84 75 84 71 105 115 112 91 64 11 6 18 17 13 11 9 4 358 340 335 336 332 330 328 327 324 320 309 302 295 299 299 280 275 299 284 242 243 249 252 254 254 252 252 251
36 43 63 97 107 92 101 107 91 99 77 84 78 70 68 70 83 21 14 16 20 13 10 11 12 17 15 7 5 358 352 347 343 338 332 330 326 319 310 296 293 297 284 260 274 283 263 255 254 254 253 251 249 246
Wind_Speed_850mb
33 42 49 47 18 11 17 23 29 32 33 36 36 39 33 29 29 27 39 50 64 38 25 27 26 24 27 16 13 26 14 5 6 6 7 7 6 11 7 7 13 16 13 8 6 4 26 27 5 23 35 10 18 25
28 39 48 48 25 17 16 20 25 32 29 31 35 39 33 28 29 36 44 44 43 31 29 42 40 29 28 18 44 13 6 12 15 7 3 6 3 2 9 7 3 6 14 12 20 16 9 36 47 62 57 48 46 44
22 31 41 41 27 23 13 17 22 26 26 26 31 31 38 44 39 30 42 40 43 44 31 24 34 32 29 37 41 16 11 12 14 10 12 4 6 7 7 8 5 8 8 6 8 15 26 26 58 52 48 56 60 65
14 20 30 34 23 14 16 19 19 22 17 21 25 27 30 35 40 34 41 34 30 18 9 9 19 25 25 25 20 19 24 28 32 26 10 5 5 10 6 4 8 11 22 13 10 24 7 35 53 62 59 61 69 70
12 8 17 23 22 18 18 23 23 15 17 19 20 24 22 28 28 28 37 42 31 10 11 9 16 15 13 18 19 24 29 33 25 8 5 4 6 7 2 3 7 24 17 17 17 28 16 44 70 71 65 65 65 66
10 2 5 14 17 19 24 25 22 22 18 22 22 23 21 16 17 15 11 22 27 23 11 6 6 10 6 8 12 18 18 13 7 7 5 5 4 5 6 7 28 47 54 70 44 74 72 82 87 84 81 89 85 82
18 12 12 11 17 20 23 25 25 23 23 20 19 20 19 16 13 18 11 8 15 14 8 7 5 9 8 9 7 6 8 6 5 4 4 5 7 14 4 10 47 76 68 65 74 81 71 95 70 85 62 54 53 57
23 20 30 23 21 24 23 19 20 20 18 18 17 16 16 16 13 20 18 9 9 9 11 6 4 7 5 7 6 6 6 2 1 4 3 6 3 6 9 46 80 83 89 64 82 81 88 99 87 88 88 81 76 76
26 33 41 37 29 26 25 21 18 15 13 12 9 9 10 7 10 10 8 6 7 11 7 4 7 6 9 6 7 6 2 1 5 4 6 9 6 14 25 46 60 87 64 85 95 83 87 92 98 100 100 91 81 78
7 42 51 45 37 31 26 22 18 10 6 8 9 9 10 8 6 5 3 6 8 7 4 1 9 3 13 12 7 9 7 5 4 8 11 7 18 74 58 72 84 87 77 78 77 74 77 79 88 90 93 88 84 78
16 40 49 46 40 34 28 24 21 16 11 3 5 5 2 4 4 4 5 4 2 4 5 7 11 8 17 6 5 17 5 3 2 8 6 6 9 16 51 73 72 81 84 83 80 85 80 74 69 68 67 67 69 66
19 30 37 39 37 34 32 27 22 16 5 3 3 2 3 2 3 6 3 3 4 8 10 8 8 8 12 11 5 7 6 3 9 2 2 8 13 27 32 33 34 42 46 46 48 53 57 58 58 53 46 44 43 43
28 33 36 34 34 34 34 29 23 12 8 4 1 1 2 3 3 9 8 7 3 15 19 15 5 11 8 9 3 4 4 8 4 1 8 13 24 41 37 28 29 29 28 29 33 37 40 42 46 44 41 38 34 33
35 38 39 44 42 38 35 35 29 21 6 5 3 6 7 8 9 9 8 7 7 10 33 22 12 8 8 5 4 6 5 4 2 5 15 7 34 31 19 19 27 30 33 34 30 32 28 22 21 22 23 28 29 34
45 43 41 41 45 42 42 40 35 32 15 8 9 9 13 8 8 5 9 8 9 30 30 12 9 4 1 4 5 7 5 9 12 11 8 24 13 20 22 29 32 34 34 34 25 19 19 22 21 22 28 30 31 35
37 43 53 49 53 48 50 51 47 47 14 15 15 3 7 2 6 13 20 15 23 38 15 7 6 6 8 6 5 14 12 15 10 8 34 25 19 23 27 26 23 25 26 27 30 24 23 25 25 27 29 30 33 37
29 34 42 57 51 47 68 69 52 20 16 13 10 31 20 10 9 11 21 21 41 37 6 6 8 21 3 4 7 11 13 10 14 25 32 35 41 36 32 30 24 25 24 22 22 23 25 28 31 32 32 32 37 41
35 30 37 47 45 39 57 57 16 14 13 15 9 15 23 25 14 14 22 28 41 25 23 12 10 9 12 14 10 9 38 62 64 66 66 60 57 55 51 40 27 23 22 23 25 26 31 32 33 32 30 33 41 47
27 28 38 42 55 38 18 17 16 10 19 9 15 17 15 15 25 24 21 34 40 23 10 10 5 9 10 12 20 49 61 77 80 82 77 69 63 54 50 46 38 31 24 27 32 33 32 33 30 30 34 42 46 48
28 22 34 37 45 26 12 10 13 10 10 13 15 13 11 9 12 18 24 33 39 11 5 7 12 34 37 75 67 76 73 67 58 56 67 78 73 61 54 51 45 33 30 34 39 42 44 45 44 41 43 46 50 54
45 36 31 42 43 21 12 13 13 8 8 10 10 12 7 6 9 12 16 30 19 15 10 51 79 102 90 89 85 85 83 81 81 80 76 80 83 78 66 54 52 47 43 41 46 50 54 57 48 46 50 53 51 51
46 61 47 48 17 17 12 20 8 12 9 6 12 11 6 4 9 10 20 23 21 30 41 61 84 86 86 91 90 85 82 73 72 74 75 79 86 89 86 75 69 68 61 59 59 60 59 57 52 52 54 54 51 52
55 60 24 24 14 21 7 17 13 12 5 8 9 5 4 6 9 15 11 20 25 34 45 62 76 79 83 84 84 83 78 76 78 79 78 78 78 79 80 84 85 85 85 82 73 71 68 61 57 57 58 57 57 59
58 36 23 31 18 11 14 8 12 11 8 6 7 7 6 7 13 4 8 13 18 25 29 33 34 42 39 36 40 40 37 37 47 49 45 51 64 69 67 74 80 85 83 80 74 72 69 64 61 63 64 64 63 65
21 20 19 10 12 12 7 6 6 6 7 8 9 6 6 12 5 7 8 7 9 22 40 39 40 41 44 54 56 52 44 45 53 60 52 45 47 50 54 57 63 67 68 76 83 77 73 66 61 64 69 71 70 70
14 22 27 16 7 12 14 14 16 15 8 9 6 9 9 5 3 12 6 2 10 30 41 46 53 58 57 54 62 63 59 53 50 57 65 54 47 45 52 56 59 61 50 57 71 75 75 71 66 64 70 71 70 69
15 10 12 19 20 20 8 7 11 6 12 13 11 11 8 9 12 7 7 17 35 38 43 45 44 45 55 62 59 58 58 56 55 59 60 59 58 55 55 59 64 59 45 43 47 58 66 70 68 66 66 68 68 68
11 30 18 29 12 16 11 8 11 17 10 17 21 12 18 14 2 7 15 36 42 49 53 55 56 58 60 61 62 64 64 60 59 58 58 51 34 31 30 37 43 47 50 42 38 38 43 49 56 59 59 60 58 59
9 31 31 9 7 8 10 12 13 17 27 31 9 8 7 10 23 31 40 39 40 44 50 58 58 58 57 56 55 53 50 51 55 57 57 58 49 27 25 28 31 33 33 33 31 33 33 36 41 47 50 51 51 51
5 33 11 8 13 12 8 15 14 30 22 24 17 14 14 22 38 51 55 54 50 51 51 53 57 61 64 67 68 61 45 40 32 30 45 49 48 46 39 29 27 28 26 24 26 31 35 37 38 40 40 42 44 47
13 7 9 6 6 5 17 26 27 21 16 10 10 10 13 17 15 37 58 65 56 55 59 61 58 57 61 62 61 60 60 41 47 50 49 53 50 42 39 35 31 24 25 22 23 28 33 37 39 41 41 40 39 38
10 8 3 7 5 12 17 7 10 9 8 8 7 9 11 10 8 11 46 61 58 68 65 60 62 65 64 56 40 45 55 59 56 50 45 43 40 38 37 33 34 37 30 28 20 19 26 32 34 35 34 32 32 30
7 10 11 9 7 4 6 11 7 7 8 7 8 8 9 10 10 22 24 54 62 65 66 57 49 55 56 54 55 55 52 49 45 41 37 34 32 32 31 28 28 28 28 30 24 19 17 21 25 28 29 28 26 24
Wind_Direction_850mb
8 8 7 10 11 114 93 81 89 85 71 66 75 82 95 89 86 120 88 95 111 106 83 99 99 110 117 126 138 157 100 37 54 99 135 202 128 210 114 175 177 162 150 179 116 112 262 190 144 178 224 118 199 227
8 15 11 21 52 104 106 92 93 100 88 76 72 82 88 75 95 103 93 112 111 93 101 97 98 99 110 115 128 134 100 141 150 114 134 106 79 75 149 204 206 206 183 179 184 209 217 187 209 216 234 257 264 268
10 22 18 32 63 79 94 100 109 104 97 85 81 89 83 81 79 100 94 99 107 100 82 96 86 104 116 136 137 118 163 142 158 131 145 149 168 131 166 241 107 259 154 192 91 243 221 211 215 228 235 244 248 252
8 23 26 33 44 62 111 123 120 100 99 93 88 91 86 81 74 82 88 86 104 99 95 57 101 99 106 129 150 171 176 162 152 153 124 148 197 193 202 181 177 194 151 182 254 271 195 232 229 238 239 245 261 274
347 28 39 39 36 65 117 147 139 91 115 103 95 97 96 70 69 69 79 67 62 74 121 98 92 69 102 124 115 136 159 158 151 125 85 199 142 132 52 66 251 187 194 189 220 224 206 254 263 265 261 265 270 271
322 273 82 65 64 66 87 101 119 118 113 113 105 101 102 86 70 72 78 58 62 64 98 76 67 51 153 132 130 141 149 145 136 131 163 191 209 186 147 208 253 236 232 233 236 251 258 263 269 270 270 271 274 277
298 243 195 137 109 106 101 108 115 119 116 107 97 94 92 84 72 56 77 29 59 49 83 92 47 27 85 119 107 112 139 113 94 114 222 174 197 183 132 225 254 252 250 248 249 253 259 261 259 269 270 275 272 270
270 236 194 176 147 137 134 126 127 124 113 106 96 79 70 62 58 49 48 74 106 57 66 92 20 29 100 81 67 53 36 75 212 277 218 200 208 198 245 237 247 257 260 262 260 255 257 268 268 267 272 270 264 265
265 210 188 179 166 156 147 139 127 121 109 112 95 69 43 38 41 33 57 108 112 65 83 81 128 228 148 91 95 108 147 295 271 254 228 162 217 224 231 243 247 250 245 252 265 267 263 259 261 264 265 262 262 264
153 168 177 177 172 169 163 160 166 161 117 61 25 21 33 28 5 16 22 37 35 30 92 152 127 123 165 161 147 135 192 222 212 243 159 219 248 248 252 256 261 264 262 262 250 254 252 251 254 256 256 261 263 262
132 165 174 177 178 177 176 175 179 178 149 125 348 56 340 297 15 39 54 58 108 7 195 171 185 141 191 143 168 203 186 211 217 259 158 255 271 250 255 251 260 259 256 258 258 261 257 259 262 264 265 263 261 258
160 169 185 185 187 187 186 186 192 195 102 112 62 349 98 137 113 92 239 350 209 221 169 165 168 160 167 184 192 184 187 125 248 133 95 262 249 252 256 262 264 263 264 262 258 255 254 254 256 257 258 258 255 250
194 192 192 200 201 199 200 198 196 189 159 94 280 150 182 203 22 177 215 278 278 172 174 164 152 162 154 184 155 103 137 225 133 113 233 237 278 289 301 296 290 282 282 279 277 276 269 261 256 252 250 251 247 239
198 204 208 201 199 205 204 201 198 182 171 223 161 231 205 211 232 194 185 190 161 172 160 149 130 164 157 139 152 125 244 76 254 249 236 251 261 301 311 317 312 310 302 295 289 283 276 256 247 246 248 244 237 227
210 208 212 209 205 206 206 206 201 193 190 217 185 231 217 230 243 220 201 152 141 152 147 121 89 150 143 156 163 104 31 252 219 235 234 249 284 303 314 312 313 313 309 304 296 272 241 224 218 228 235 228 212 206
214 213 214 213 210 208 209 209 201 204 206 203 213 224 203 88 258 211 208 194 173 162 144 114 105 70 244 165 131 214 154 223 240 216 247 277 295 300 304 305 308 315 313 305 293 272 240 238 233 231 229 226 216 208
222 212 212 217 214 206 202 199 202 204 213 200 239 221 206 243 226 197 201 190 178 162 169 139 178 218 101 148 235 192 214 226 228 258 286 284 292 291 290 296 306 316 315 309 296 274 256 245 244 241 233 225 214 207
224 210 204 208 202 205 203 203 212 215 218 200 193 218 218 228 227 212 200 182 172 191 159 202 154 194 203 191 239 237 242 261 266 273 282 291 293 286 280 279 282 293 300 311 298 273 256 251 252 250 233 219 213 209
220 213 208 203 194 192 185 198 207 211 218 201 223 231 227 241 237 235 220 199 194 187 182 170 215 207 228 221 241 253 257 264 272 279 288 296 297 292 280 269 269 283 299 307 297 283 268 256 253 243 231 223 218 213
205 203 200 192 184 184 196 213 197 231 206 198 209 202 211 221 231 225 214 199 194 192 196 213 224 236 232 249 254 261 267 272 276 282 284 287 294 295 288 272 264 267 276 284 283 279 264 252 242 231 228 223 220 218
192 182 187 184 180 183 187 195 196 207 192 185 195 188 220 245 224 201 193 187 185 220 230 228 242 251 254 258 263 267 272 275 274 275 276 282 286 285 284 283 261 259 263 269 274 274 267 260 252 242 235 231 226 224
187 184 180 183 186 194 218 202 184 172 173 159 166 190 190 191 198 194 177 193 229 234 231 252 258 264 271 277 284 288 290 290 286 284 282 277 273 272 271 271 268 266 267 273 274 273 274 267 255 245 239 238 233 232
193 180 165 158 181 196 203 184 174 187 172 173 159 187 200 176 183 170 242 229 249 262 270 271 278 282 283 287 287 288 291 291 288 286 285 280 277 274 272 268 267 266 268 270 271 269 270 268 255 245 240 237 235 233
187 175 180 177 175 162 169 150 160 140 128 175 180 207 175 153 166 199 258 264 279 346 6 353 337 326 326 324 327 339 337 322 316 307 303 293 285 283 278 271 266 265 265 267 265 265 265 264 257 244 239 237 235 235
157 184 175 151 158 122 134 128 149 178 209 164 179 191 171 159 194 230 230 257 343 357 356 0 1 359 346 349 352 349 345 328 319 312 315 312 299 294 289 285 278 270 261 257 257 257 259 259 255 243 237 237 237 237
191 187 174 164 149 169 173 155 190 183 157 154 183 120 154 163 193 245 212 347 3 352 355 355 347 342 343 339 332 330 330 327 317 307 311 309 302 295 297 295 291 283 277 267 258 253 251 252 251 246 239 237 238 239
179 158 156 160 151 140 114 98 141 143 173 175 162 161 166 188 235 247 150 359 350 346 344 343 339 335 329 329 326 322 318 314 307 304 303 302 299 295 291 290 291 296 293 278 268 255 251 250 249 247 243 242 242 243
140 162 156 172 155 166 136 167 166 186 174 147 139 175 176 199 275 52 6 347 342 343 345 344 337 328 325 325 325 324 322 318 313 309 307 308 318 316 306 299 292 281 282 278 265 259 255 251 247 248 248 249 251 250
148 152 125 122 131 159 194 182 198 197 158 168 153 157 161 86 60 40 20 6 357 347 340 337 337 333 328 323 321 319 319 317 313 311 310 310 319 316 319 317 304 297 277 270 259 247 252 253 250 248 249 251 253 254
130 159 99 136 149 183 194 190 151 157 156 155 145 121 111 115 64 44 29 16 8 5 357 349 343 341 338 332 327 325 331 329 316 318 321 313 314 318 304 313 326 314 288 260 254 252 250 250 251 247 245 243 242 243
121 115 90 87 97 86 131 132 137 143 142 142 145 113 120 138 92 35 18 10 8 12 6 1 358 2 355 348 342 337 335 335 325 317 308 302 299 303 306 296 293 314 316 277 243 241 244 248 249 252 252 251 251 250
30 41 107 110 105 117 121 114 104 84 75 84 71 105 115 112 91 64 11 6 18 17 13 11 9 4 358 340 335 336 332 330 328 327 324 320 309 302 295 299 299 280 275 299 284 242 243 249 252 254 254 252 252 251
36 43 63 97 107 92 101 107 91 99 77 84 78 70 68 70 83 21 14 16 20 13 10 11 12 17 15 7 5 358 352 347 343 338 332 330 326 319 310 296 293 297 284 260 274 283 263 255 254 254 253 251 249 246